| time (UTC) | temp C | wind direction | speed KPH | gust KPH | rain 1hr cm | rain 24hr cm | rain mn cm | humidity % | barometer mb |
| 20260506033713 | 17 | 207 | 6.4 | 20.9 | 0.00 | 0.00 | 0.00 | 65 | 1009.0 |
| 20260506032231 | 17 | 200 | 8.0 | 19.3 | 0.00 | 0.00 | 0.00 | 65 | 1008.9 |
| 20260506031225 | 17 | 239 | 8.0 | 16.1 | 0.00 | 0.00 | 0.00 | 64 | 1008.9 |
| 20260506030225 | 18 | 216 | 8.0 | 19.3 | 0.00 | 0.00 | 0.00 | 64 | 1008.9 |
| 20260506030139 | 18 | 240 | 9.7 | 24.1 | 0.00 | 0.00 | 0.00 | 63 | 1009.1 |
| 20260506025200 | 18 | 170 | 6.4 | 19.3 | 0.00 | 0.00 | 0.00 | 63 | 1009.0 |
| 20260506023708 | 18 | 238 | 6.4 | 14.5 | 0.00 | 0.00 | 0.00 | 62 | 1009.0 |
| 20260506022221 | 18 | 191 | 6.4 | 16.1 | 0.00 | 0.00 | 0.00 | 62 | 1009.0 |
| 20260506021221 | 19 | 192 | 6.4 | 12.9 | 0.00 | 0.00 | 0.00 | 61 | 1009.0 |
| 20260506020222 | 19 | 182 | 8.0 | 19.3 | 0.00 | 0.00 | 0.00 | 60 | 1009.0 |
| 20260506015222 | 19 | 211 | 6.4 | 14.5 | 0.00 | 0.00 | 0.00 | 60 | 1008.7 |
| 20260506014219 | 20 | 195 | 6.4 | 16.1 | 0.00 | 0.00 | 0.00 | 58 | 1008.7 |
| 20260506013221 | 20 | 215 | 8.0 | 19.3 | 0.00 | 0.00 | 0.00 | 58 | 1008.7 |
| 20260506012219 | 20 | 194 | 6.4 | 22.5 | 0.00 | 0.00 | 0.00 | 57 | 1008.7 |
| 20260506011656 | 20 | 220 | 6.4 | 17.7 | 0.00 | 0.00 | 0.00 | 56 | 1008.1 |
| 20260506010219 | 20 | 216 | 9.7 | 20.9 | 0.00 | 0.00 | 0.00 | 56 | 1008.1 |
| 20260506005707 | 20 | 301 | 9.7 | 22.5 | 0.00 | 0.00 | 0.00 | 55 | 1008.0 |
| 20260506004220 | 21 | 301 | 9.7 | 20.9 | 0.00 | 0.00 | 0.00 | 55 | 1007.6 |
| 20260506003211 | 21 | 174 | 9.7 | 22.5 | 0.00 | 0.00 | 0.00 | 54 | 1007.6 |
| 20260506002209 | 21 | 217 | 6.4 | 11.3 | 0.00 | 0.00 | 0.00 | 54 | 1007.1 |
| 20260506001209 | 21 | 158 | 8.0 | 17.7 | 0.00 | 0.00 | 0.00 | 53 | 1007.1 |
| 20260506000211 | 21 | 202 | 8.0 | 20.9 | 0.00 | 0.00 | 0.00 | 52 | 1007.1 |
| 20260505235209 | 22 | 301 | 8.0 | 19.3 | 0.00 | 0.00 | 0.00 | 52 | 1006.8 |
| 20260505234211 | 22 | 206 | 9.7 | 30.6 | 0.00 | 0.00 | 0.00 | 51 | 1006.5 |
| 20260505233204 | 22 | 212 | 9.7 | 19.3 | 0.00 | 0.00 | 0.00 | 51 | 1006.5 |
| 20260505232204 | 22 | 187 | 8.0 | 25.7 | 0.00 | 0.00 | 0.00 | 51 | 1006.3 |
| 20260505231203 | 23 | 187 | 8.0 | 17.7 | 0.00 | 0.00 | 0.00 | 50 | 1006.1 |
| 20260505230203 | 23 | 223 | 8.0 | 20.9 | 0.00 | 0.00 | 0.00 | 49 | 1006.1 |
| 20260505230121 | 23 | 193 | 9.7 | 33.8 | 0.00 | 0.00 | 0.00 | 48 | 1006.0 |
| 20260505224204 | 24 | 203 | 14.5 | 37.0 | 0.00 | 0.00 | 0.00 | 46 | 1005.5 |
| 20260505223152 | 24 | 224 | 12.9 | 24.1 | 0.00 | 0.00 | 0.00 | 45 | 1005.5 |
| 20260505222153 | 25 | 240 | 11.3 | 35.4 | 0.00 | 0.00 | 0.00 | 45 | 1005.1 |
| 20260505221153 | 25 | 181 | 12.9 | 25.7 | 0.00 | 0.00 | 0.00 | 44 | 1004.9 |
| 20260505220153 | 25 | 216 | 12.9 | 33.8 | 0.00 | 0.00 | 0.00 | 43 | 1004.9 |
| 20260505215153 | 25 | 237 | 11.3 | 32.2 | 0.00 | 0.00 | 0.00 | 43 | 1005.0 |
| 20260505214153 | 26 | 198 | 14.5 | 45.1 | 0.00 | 0.00 | 0.00 | 41 | 1005.0 |
| 20260505213153 | 26 | 208 | 14.5 | 35.4 | 0.00 | 0.00 | 0.00 | 39 | 1005.0 |
| 20260505212151 | 26 | 203 | 14.5 | 38.6 | 0.00 | 0.00 | 0.00 | 39 | 1004.8 |
| 20260505211629 | 26 | 198 | 12.9 | 29.0 | 0.00 | 0.00 | 0.00 | 37 | 1004.5 |
| 20260505210148 | 27 | 193 | 12.9 | 32.2 | 0.00 | 0.00 | 0.00 | 37 | 1004.5 |
| 20260505205144 | 27 | 164 | 11.3 | 32.2 | 0.00 | 0.00 | 0.00 | 37 | 1004.5 |
| 20260505204145 | 27 | 198 | 14.5 | 35.4 | 0.00 | 0.00 | 0.00 | 36 | 1004.5 |
| 20260505203634 | 27 | 222 | 11.3 | 37.0 | 0.00 | 0.00 | 0.00 | 35 | 1004.5 |
| 20260505202146 | 27 | 272 | 8.0 | 17.7 | 0.00 | 0.00 | 0.00 | 37 | 1004.5 |
| 20260505201620 | 27 | 264 | 9.7 | 24.1 | 0.00 | 0.00 | 0.00 | 36 | 1004.8 |
| 20260505200623 | 27 | 214 | 11.3 | 27.4 | 0.00 | 0.00 | 0.00 | 37 | 1004.8 |
| 20260505195141 | 27 | 220 | 11.3 | 29.0 | 0.00 | 0.00 | 0.00 | 36 | 1004.6 |
| 20260505194140 | 27 | 204 | 12.9 | 38.6 | 0.00 | 0.00 | 0.00 | 37 | 1004.6 |
| 20260505193142 | 27 | 191 | 12.9 | 27.4 | 0.00 | 0.00 | 0.00 | 39 | 1004.6 |
| 20260505192140 | 27 | 207 | 11.3 | 30.6 | 0.00 | 0.00 | 0.00 | 40 | 1005.0 |
| 20260505191142 | 27 | 229 | 12.9 | 32.2 | 0.00 | 0.00 | 0.00 | 41 | 1005.1 |
| 20260505190140 | 27 | 216 | 14.5 | 30.6 | 0.00 | 0.00 | 0.00 | 40 | 1005.1 |
| 20260505185139 | 27 | 201 | 14.5 | 35.4 | 0.00 | 0.00 | 0.00 | 38 | 1005.3 |
| 20260505184140 | 27 | 193 | 12.9 | 38.6 | 0.00 | 0.00 | 0.00 | 40 | 1005.7 |
| 20260505183139 | 27 | 247 | 14.5 | 32.2 | 0.00 | 0.00 | 0.00 | 40 | 1005.7 |
| 20260505182136 | 27 | 191 | 14.5 | 40.2 | 0.00 | 0.00 | 0.00 | 39 | 1006.0 |
| 20260505181136 | 27 | 222 | 12.9 | 37.0 | 0.00 | 0.00 | 0.00 | 42 | 1006.3 |
| 20260505180137 | 27 | 194 | 9.7 | 24.1 | 0.00 | 0.00 | 0.00 | 40 | 1006.3 |
| 20260505175136 | 27 | 137 | 12.9 | 33.8 | 0.00 | 0.00 | 0.00 | 42 | 1006.3 |
| 20260505174615 | 27 | 137 | 12.9 | 33.8 | 0.00 | 0.00 | 0.00 | 40 | 1006.5 |
| 20260505173612 | 27 | 210 | 11.3 | 33.8 | 0.00 | 0.00 | 0.00 | 41 | 1006.5 |
| 20260505172136 | 27 | 202 | 11.3 | 25.7 | 0.00 | 0.00 | 0.00 | 40 | 1006.6 |
| 20260505171138 | 27 | 229 | 9.7 | 27.4 | 0.00 | 0.00 | 0.00 | 44 | 1007.0 |
| 20260505170134 | 27 | 184 | 9.7 | 22.5 | 0.00 | 0.00 | 0.00 | 46 | 1007.0 |
| 20260505165134 | 26 | 245 | 8.0 | 24.1 | 0.00 | 0.00 | 0.00 | 45 | 1007.1 |
| 20260505164133 | 26 | 146 | 9.7 | 25.7 | 0.00 | 0.00 | 0.00 | 43 | 1007.5 |
| 20260505163608 | 26 | 209 | 8.0 | 19.3 | 0.00 | 0.00 | 0.00 | 43 | 1007.5 |
| 20260505162130 | 26 | 214 | 6.4 | 20.9 | 0.00 | 0.00 | 0.00 | 46 | 1007.6 |
| 20260505161132 | 26 | 231 | 9.7 | 22.5 | 0.00 | 0.00 | 0.00 | 46 | 1007.7 |
| 20260505160130 | 26 | 230 | 8.0 | 19.3 | 0.00 | 0.00 | 0.00 | 45 | 1007.7 |
| 20260505153131 | 24 | 222 | 8.0 | 20.9 | 0.00 | 0.00 | 0.00 | 53 | 1008.6 |
| 20260505152128 | 23 | 195 | 6.4 | 19.3 | 0.00 | 0.00 | 0.00 | 51 | 1008.7 |
| 20260505151129 | 23 | 131 | 6.4 | 19.3 | 0.00 | 0.00 | 0.00 | 53 | 1008.6 |
| 20260505150128 | 23 | 175 | 6.4 | 17.7 | 0.00 | 0.00 | 0.00 | 53 | 1008.6 |
| 20260505140126 | 19 | 254 | 6.4 | 25.7 | 0.00 | 0.00 | 0.00 | 63 | 1009.2 |
| 20260505124118 | 16 | 175 | 6.4 | 12.9 | 0.00 | 0.00 | 0.00 | 68 | 1009.2 |
| 20260505123118 | 16 | 301 | 6.4 | 16.1 | 0.00 | 0.00 | 0.00 | 69 | 1009.2 |
| 20260505122118 | 16 | 202 | 6.4 | 14.5 | 0.00 | 0.00 | 0.00 | 70 | 1009.2 |
| 20260505121118 | 15 | 217 | 6.4 | 16.1 | 0.00 | 0.00 | 0.00 | 72 | 1009.2 |
| 20260505120119 | 15 | 219 | 6.4 | 12.9 | 0.00 | 0.00 | 0.00 | 72 | 1009.2 |
| 20260505115119 | 14 | 162 | 8.0 | 17.7 | 0.00 | 0.00 | 0.00 | 73 | 1009.2 |
| 20260505114116 | 13 | 180 | 4.8 | 19.3 | 0.00 | 0.00 | 0.00 | 74 | 1009.1 |
| 20260505113601 | 13 | 190 | 4.8 | 12.9 | 0.00 | 0.00 | 0.00 | 75 | 1009.1 |
| 20260505112116 | 12 | 202 | 6.4 | 17.7 | 0.00 | 0.00 | 0.00 | 76 | 1009.1 |
| 20260505112043 | 12 | 200 | 6.4 | 16.1 | 0.00 | 0.00 | 0.00 | 78 | 1008.9 |
| 20260505110115 | 11 | 196 | 4.8 | 12.9 | 0.00 | 0.00 | 0.00 | 79 | 1008.9 |
| 20260505102117 | 11 | 184 | 4.8 | 8.0 | 0.00 | 0.00 | 0.00 | 79 | 1009.0 |
| 20260505101112 | 11 | 208 | 3.2 | 9.7 | 0.00 | 0.00 | 0.00 | 79 | 1008.9 |
| 20260505100111 | 11 | 183 | 4.8 | 9.7 | 0.00 | 0.00 | 0.00 | 78 | 1008.9 |
| 20260505095109 | 11 | 211 | 4.8 | 11.3 | 0.00 | 0.00 | 0.00 | 77 | 1008.9 |
| 20260505094107 | 11 | 198 | 4.8 | 8.0 | 0.00 | 0.00 | 0.00 | 77 | 1009.0 |
| 20260505093106 | 11 | 184 | 4.8 | 11.3 | 0.00 | 0.00 | 0.00 | 76 | 1009.0 |
| 20260505092106 | 11 | 209 | 4.8 | 11.3 | 0.00 | 0.00 | 0.00 | 76 | 1008.9 |
| 20260505091106 | 11 | 206 | 4.8 | 11.3 | 0.00 | 0.00 | 0.00 | 76 | 1008.8 |
| 20260505090105 | 11 | 206 | 4.8 | 12.9 | 0.00 | 0.00 | 0.00 | 76 | 1008.8 |
| 20260505085053 | 10 | 160 | 4.8 | 12.9 | 0.00 | 0.00 | 0.00 | 76 | 1008.9 |
| 20260505084053 | 10 | 188 | 4.8 | 8.0 | 0.00 | 0.00 | 0.00 | 76 | 1009.2 |
| 20260505083054 | 10 | 198 | 4.8 | 8.0 | 0.00 | 0.00 | 0.00 | 76 | 1009.2 |
| 20260505082531 | 10 | 211 | 3.2 | 6.4 | 0.00 | 0.00 | 0.00 | 75 | 1009.2 |
| 20260505081536 | 11 | 213 | 3.2 | 8.0 | 0.00 | 0.00 | 0.00 | 75 | 1009.2 |
| 20260505080053 | 11 | 193 | 3.2 | 6.4 | 0.00 | 0.00 | 0.00 | 74 | 1009.2 |
| 20260505075053 | 11 | 203 | 3.2 | 6.4 | 0.00 | 0.00 | 0.00 | 74 | 1009.2 |
| 20260505074053 | 11 | 204 | 4.8 | 8.0 | 0.00 | 0.00 | 0.00 | 74 | 1009.2 |
| 20260505073055 | 11 | 177 | 4.8 | 8.0 | 0.00 | 0.00 | 0.00 | 74 | 1009.2 |
| 20260505072055 | 10 | 153 | 4.8 | 8.0 | 0.00 | 0.00 | 0.00 | 75 | 1009.3 |
| 20260505071052 | 10 | 186 | 4.8 | 8.0 | 0.00 | 0.00 | 0.00 | 75 | 1009.5 |
| 20260505070051 | 10 | 184 | 3.2 | 8.0 | 0.00 | 0.00 | 0.00 | 76 | 1009.5 |
| 20260505065052 | 10 | 198 | 3.2 | 8.0 | 0.00 | 0.00 | 0.00 | 75 | 1009.4 |
| 20260505064050 | 10 | 177 | 3.2 | 4.8 | 0.00 | 0.00 | 0.00 | 74 | 1009.6 |
| 20260505063532 | 11 | 188 | 3.2 | 4.8 | 0.00 | 0.00 | 0.00 | 73 | 1009.6 |
| 20260505062050 | 11 | 187 | 3.2 | 8.0 | 0.00 | 0.00 | 0.00 | 72 | 1009.7 |
| 20260505061047 | 11 | 247 | 3.2 | 8.0 | 0.00 | 0.00 | 0.00 | 71 | 1009.7 |
| 20260505060049 | 11 | 183 | 1.6 | 4.8 | 0.00 | 0.00 | 0.00 | 70 | 1009.7 |
| 20260505055048 | 11 | 183 | 1.6 | 4.8 | 0.00 | 0.00 | 0.00 | 69 | 1009.7 |
| 20260505054048 | 11 | 181 | 0.0 | 3.2 | 0.00 | 0.00 | 0.00 | 69 | 1009.7 |
| 20260505053048 | 12 | 181 | 0.0 | 1.6 | 0.00 | 0.00 | 0.00 | 68 | 1009.7 |
| 20260505052049 | 12 | 181 | 1.6 | 6.4 | 0.00 | 0.00 | 0.00 | 67 | 1009.7 |
| 20260505051035 | 12 | 181 | 3.2 | 8.0 | 0.00 | 0.00 | 0.00 | 67 | 1009.7 |
| 20260505041033 | 13 | 229 | 4.8 | 14.5 | 0.00 | 0.00 | 0.00 | 62 | 1009.7 |
| 20260505040031 | 13 | 202 | 4.8 | 9.7 | 0.00 | 0.00 | 0.00 | 62 | 1009.7 |
| 20260505035031 | 13 | 151 | 6.4 | 12.9 | 0.00 | 0.00 | 0.00 | 61 | 1009.6 |